Weather Service Report


714 
ASUS46 KSEW 300010
RWRWA 

WASHINGTON REGIONAL WEATHER ROUNDUP
NATIONAL WEATHER SERVICE SEATTLE WA
500 PM PDT FRI APR 29 2016

NOTE:"FAIR" INDICATES FEW OR NO CLOUDS BELOW 12,000 FEET WITH NO 
SIGNIFICANT WEATHER AND/OR OBSTRUCTIONS TO VISIBILITY.

WAZ505-507>509-300100-
SEATTLE, TACOMA, EVERETT, AND VICINITY
  
CITY           SKY/WX    TMP DP  RH WIND       PRES   REMARKS
EVERETT        SUNNY     58  41  53 N6        30.14S                  
6HR MIN TEMP:  50; 6HR MAX TEMP:  59; 6HR PCP: TRACE;                

BOEING FIELD   CLOUDY    59  46  62 SW6       30.14F                  
6HR MIN TEMP:  52; 6HR MAX TEMP:  60;                                

RENTON         MOSUNNY   60  43  53 N5        30.14S                  
6HR MIN TEMP:  50; 6HR MAX TEMP:  61; 6HR PCP: TRACE;                

SEATAC AIRPORT MOSUNNY   58  43  57 CALM      30.15F                  
6HR MIN TEMP:  50; 6HR MAX TEMP:  59; 6HR PCP: TRACE;                

JBLM-MCCHORD   SUNNY     58  42  55 VRB3      30.14F                  
6HR MIN TEMP:  49; 6HR MAX TEMP:  60; 6HR PCP:  0.01;                

PUYALLUP       FAIR      59  45  58 CALM      30.15S                  
BREMERTON      CLOUDY    57  46  67 N7        30.15F                  
6HR MIN TEMP:  50; 6HR MAX TEMP:  59;                                

JBLM-FT LEWIS  MOSUNNY   60  44  56 NW7       30.14S                  
6HR MIN TEMP:  49; 6HR MAX TEMP:  61; 6HR PCP:  0.01;                

TACOMA NARROWS PTSUNNY   57  40  52 VRB3      30.16R                  
6HR MIN TEMP:  49; 6HR MAX TEMP:  58;                                

$$
 
WAZ001-503-506-510-514-515-300100-
NORTH INTERIOR
  
CITY           SKY/WX    TMP DP  RH WIND       PRES   REMARKS
BELLINGHAM     SUNNY     60  43  53 S9        30.12S                  
6HR MIN TEMP:  52; 6HR MAX TEMP:  61; 6HR PCP: TRACE;                

FRIDAY HARBOR  PTSUNNY   61  45  55 S6        30.13R                  
6HR MIN TEMP:  56; 6HR MAX TEMP:  61;                                

EASTSOUND      SUNNY     57  45  62 NE5       30.11S                  
PORT ANGELES   LGT RAIN  55  46  71 NW15G23   30.15R                  
6HR MIN TEMP:  53; 6HR MAX TEMP:  57; 6HR PCP: TRACE;                

EDIZ HOOK      FAIR      55  46  72 W20       30.14S                  
6HR MIN TEMP:  53; 6HR MAX TEMP:  56;                                

PORT TOWNSEND  FAIR      59  46  63 W8        30.15R                  
NAS WHIDBEY    MOSUNNY   58  47  66 SW12      30.18R                  
6HR MIN TEMP:  53; 6HR MAX TEMP:  60;                                

ARLINGTON      PTSUNNY   61  45  55 CALM      30.15S                  
6HR MIN TEMP:  50; 6HR MAX TEMP:  61;                                

BURLINGTON     MOSUNNY   61  43  51 S6        30.14S                  
$$
 
WAZ020-022-039-040-504-511-512-300100-
SOUTHWEST INTERIOR
  
CITY           SKY/WX    TMP DP  RH WIND       PRES   REMARKS
SHELTON        MOSUNNY   61  44  53 S7        30.11S                  
6HR MIN TEMP:  52; 6HR MAX TEMP:  61; 6HR PCP: TRACE;                

OLYMPIA        PTSUNNY   60  42  51 NE5       30.14S                  
6HR MIN TEMP:  53; 6HR MAX TEMP:  61;                                

CHEHALIS       FAIR      59  48  67 NW6       30.15S                  
KELSO          CLOUDY    54  46  76 W5        30.18R                  
6HR MIN TEMP:  52; 6HR MAX TEMP:  57;                                

VANCOUVER      MOSUNNY   57  48  72 SW3       30.14F                  
6HR MIN TEMP:  49; 6HR MAX TEMP:  58; 6HR PCP:  0.12;                

SCAPPOOSE, OR  MOSUNNY   58  51  78 SE7       30.14S                  
6HR MIN TEMP:  51; 6HR MAX TEMP:  58; 6HR PCP:  0.12;                

PORTLAND, OR   PTSUNNY   58  49  72 SW7       30.15S                  
6HR MIN TEMP:  50; 6HR MAX TEMP:  60; 6HR PCP:  0.05;                

$$
 
WAZ021-516-517-300100-
WASHINGTON COAST
  
CITY           SKY/WX    TMP DP  RH WIND       PRES   REMARKS
FORKS          PTSUNNY   56  44  64 W10       30.19R                  
6HR MIN TEMP:  52; 6HR MAX TEMP:  58;                                

HOQUIAM          N/A    N/A N/A N/A MISG      30.17R                  
ASTORIA, OR    CLOUDY    57  49  74 NW13      30.19R                  
6HR MIN TEMP:  53; 6HR MAX TEMP:  61; 6HR PCP:  0.01;                

$$
 
WAZ019-023-024-040-518-519-300100-
CASCADE MOUNTAINS AND COLUMBIA GORGE
  
CITY           SKY/WX    TMP DP  RH WIND       PRES   REMARKS
STAMPEDE PASS  MIX PCPN  37  35  92 VRB5      30.08S VSB 1/4          
6HR MIN TEMP:  35; 6HR MAX TEMP:  39; 6HR PCP: TRACE;                

TROUTDALE, OR  PTSUNNY   59  50  72 SW8       30.14S                  
6HR MIN TEMP:  50; 6HR MAX TEMP:  60; 6HR PCP:  0.03;                

THE DALLES, OR PTSUNNY   65  37  35 W17G28    30.03S                  
6HR MIN TEMP:  59; 6HR MAX TEMP:  67;                                

$$

WAZ026-027-041>044-520-521-300100-
EAST SLOPES
  
CITY           SKY/WX    TMP DP  RH WIND       PRES   REMARKS
OMAK           CLOUDY    63  40  42 N9        29.92R                  
6HR MIN TEMP:  55; 6HR MAX TEMP:  65;                                

WENATCHEE      MOSUNNY   67  30  25 NW24G31   29.93R                  
6HR MIN TEMP:  58; 6HR MAX TEMP:  68;                                

ELLENSBURG     MOSUNNY   59  36  42 NW30G41   29.97R                  
6HR MIN TEMP:  53; 6HR MAX TEMP:  61;                                

YAKIMA         MOSUNNY   66  33  29 NW23G36   29.98R                  
6HR MIN TEMP:  60; 6HR MAX TEMP:  69;                                

$$

WAZ028-034-035-300100-
COLUMBIA BASIN
  
CITY           SKY/WX    TMP DP  RH WIND       PRES   REMARKS
EPHRATA        PTSUNNY   58  46  64 S6        29.95R                  
6HR MIN TEMP:  50; 6HR MAX TEMP:  62; 6HR PCP:  0.28;                

MOSES LAKE     CLOUDY    57  47  69 W3        29.96R                  
6HR MIN TEMP:  51; 6HR MAX TEMP:  63; 6HR PCP:  0.07;                

PASCO          CLOUDY    63  43  48 NW3       29.98S                  
6HR MIN TEMP:  58; 6HR MAX TEMP:  66; 6HR PCP: TRACE;                

HERMISTON, OR    N/A     62  43  49 W12       29.99R                  
6HR MIN TEMP:  57; 6HR MAX TEMP:  64; 6HR PCP: TRACE;                

$$

WAZ036>038-300100-
NORTHEAST WASHINGTON
  
CITY           SKY/WX    TMP DP  RH WIND       PRES   REMARKS
SPOKANE GEIGER LGT RAIN  51  41  68 W5        29.96R                  
6HR MIN TEMP:  47; 6HR MAX TEMP:  51; 6HR PCP:  0.02;                

SPOKANE FELTS  CLOUDY    53  43  68 W7        29.97R                  
6HR MIN TEMP:  52; 6HR MAX TEMP:  55; 6HR PCP: TRACE;                

FAIRCHILD AFB  DRIZZLE   50  42  76 W3        29.96R                  
6HR MIN TEMP:  46; 6HR MAX TEMP:  50; 6HR PCP:  0.09;                

COEURDALENE,ID CLOUDY    54  36  50 CALM      29.93R                  
6HR MIN TEMP:  48; 6HR MAX TEMP:  55;                                

DEER PARK      CLOUDY    51  41  68 W5        29.97R                  
6HR MIN TEMP:  48; 6HR MAX TEMP:  51; 6HR PCP:  0.02;                

$$

WAZ029>033-300100-
SOUTHEAST WASHINGTON
  
CITY           SKY/WX    TMP DP  RH WIND       PRES   REMARKS
PULLMAN        CLOUDY    49  45  86 W12       29.98S                  
6HR MIN TEMP:  45; 6HR MAX TEMP:  49; 6HR PCP:  0.08;                

LEWISTON, ID   LGT RAIN  51  43  74 CALM      29.98R                  
6HR MIN TEMP:  50; 6HR MAX TEMP:  52; 6HR PCP:  0.07;                

WALLA WALLA    CLOUDY    53  45  74 S12       29.99S                  
6HR MIN TEMP:  51; 6HR MAX TEMP:  56; 6HR PCP:  0.01;                

PENDLETON, OR  PTSUNNY   56  38  50 W13       29.99S                  
6HR MIN TEMP:  53; 6HR MAX TEMP:  57; 6HR PCP: TRACE;                

$$
  

Return to Home page


Western Regional Climate Center, wrcc@dri.edu